Stations météo

Publicité
Tholey, Allemagne (10706): Température de l'air & dewpoint: 10.01.2019 17:00:00 - 16.01.2019 17:00:00 (CET)Tholey, Allemagne (10706): Température de l'air 5cm & Température de l'air -5cm: 10.01.2019 17:00:00 - 16.01.2019 17:00:00 (CET)Tholey, Allemagne (10706): Température de l'air -20cm & Température de l'air -100cm: 10.01.2019 17:00:00 - 16.01.2019 17:00:00 (CET)Tholey, Allemagne (10706): Vitesse du vent & gusts: 10.01.2019 17:00:00 - 16.01.2019 17:00:00 (CET)Tholey, Allemagne (10706): Direction du vent: 10.01.2019 17:00:00 - 16.01.2019 17:00:00 (CET)Tholey, Allemagne (10706): reduced air pressure: 10.01.2019 17:00:00 - 16.01.2019 17:00:00 (CET)Tholey, Allemagne (10706): visibility: 10.01.2019 17:00:00 - 16.01.2019 17:00:00 (CET)Tholey, Allemagne (10706): Ensoleillement: 10.01.2019 17:00:00 - 16.01.2019 17:00:00 (CET)Tholey, Allemagne (10706): Quantités de précipitations: 10.01.2019 17:00:00 - 16.01.2019 17:00:00 (CET)
Date & Time tt [°C] td [°C] tt 5cm [°C] tt -5cm [°C] tt -20cm [°C] tt -100cm [°C] ff [km/h] ff [knt] fx [km/h] fx [knt] dd ppp [hPa] vv [km] sd [min] rr [mm]
16.01.2019 17:00:00 - - - - - - - - - - - - - - -
16.01.2019 16:00:00 3,6 -0,1 3,1 4,3 3,5 5,8 16 9 29 15 SW 1010,7 26 13 0,0
16.01.2019 15:00:00 4,4 0,0 4,6 5,0 3,3 5,8 17 9 28 15 SW 1011,2 26 60 0,0
16.01.2019 14:00:00 4,3 -0,5 5,2 4,8 3,2 5,8 18 10 28 15 WSW 1012,1 36 60 0,0
16.01.2019 13:00:00 3,9 -0,6 4,7 4,2 3,1 5,8 19 10 36 19 WSW 1013,3 41 30 0,0
16.01.2019 12:00:00 3,3 -0,5 4,3 3,7 3,0 5,8 22 12 33 18 WSW 1014,4 37 36 0,0
16.01.2019 11:00:00 2,8 -0,8 3,5 2,5 3,0 5,8 19 10 31 17 WSW 1015,5 34 3 0,0
16.01.2019 10:00:00 2,4 -0,8 2,3 2,1 3,1 5,8 17 9 26 14 WSW 1015,9 38 0 0,0
16.01.2019 09:00:00 2,3 -0,6 1,9 2,0 3,1 5,8 16 9 24 13 WSW 1016,3 34 0 0,0
16.01.2019 08:00:00 2,3 -0,3 1,9 2,1 3,1 5,8 13 7 20 11 WSW 1016,4 30 0 0,0
16.01.2019 07:00:00 2,4 -0,5 2,0 2,2 3,2 5,8 15 8 27 15 WSW 1016,8 37 0 0,0
16.01.2019 06:00:00 2,5 -0,3 2,1 2,2 3,2 5,8 14 8 27 14 WSW 1017,4 43 0 0,0
16.01.2019 05:00:00 2,7 -0,4 2,3 2,3 3,2 5,8 15 8 30 16 W 1018,1 42 0 0,0
16.01.2019 04:00:00 2,9 -0,3 2,4 2,4 3,2 5,8 17 9 34 19 W 1018,6 44 0 0,0
16.01.2019 03:00:00 3,1 -0,3 2,7 2,5 3,3 5,8 22 12 34 18 W 1019,1 34 0 0,0
16.01.2019 02:00:00 3,2 0,2 2,5 2,7 3,3 5,8 21 12 29 16 WSW 1019,2 27 0 0,0
16.01.2019 01:00:00 3,2 1,1 2,5 2,8 3,3 5,8 18 10 29 16 WSW 1019,8 24 0 0,0
16.01.2019 00:00:00 3,2 2,0 2,6 2,9 3,3 5,8 16 9 23 13 W 1020,2 13 0 0,0
15.01.2019 23:00:00 3,1 2,5 2,7 2,9 3,3 5,8 15 8 30 16 WSW 1020,6 7 0 0,0
15.01.2019 22:00:00 3,2 2,5 2,9 3,0 3,3 5,8 17 9 28 15 W 1020,8 7 0 0,1
15.01.2019 21:00:00 3,2 2,3 2,8 2,9 3,2 5,8 17 9 30 16 W 1021,0 7 0 0,0
15.01.2019 20:00:00 3,5 1,8 2,9 3,0 3,2 5,8 21 11 33 18 W 1021,1 19 0 0,0
15.01.2019 19:00:00 3,7 1,4 3,4 3,0 3,2 5,8 24 13 35 19 W 1021,1 28 0 0,0
15.01.2019 18:00:00 3,7 1,7 3,4 3,1 3,2 5,8 21 11 35 19 W 1021,1 23 0 0,0
15.01.2019 17:00:00 3,8 1,7 3,4 3,3 3,1 5,8 23 13 31 17 W 1021,3 21 0 0,0
15.01.2019 16:00:00 3,7 1,7 3,5 3,5 3,0 5,8 22 12 30 16 WSW 1021,5 22 0 0,0
15.01.2019 15:00:00 3,5 2,2 3,6 3,4 2,9 5,8 20 11 33 18 W 1021,6 13 0 0,0
15.01.2019 14:00:00 3,3 2,0 3,3 3,3 2,8 5,8 21 11 34 18 WSW 1022,1 12 0 0,0
15.01.2019 13:00:00 3,1 2,1 3,4 3,2 2,7 5,8 21 12 31 17 WSW 1022,3 8 0 0,0
15.01.2019 12:00:00 2,8 2,0 3,3 2,8 2,6 5,8 20 11 32 18 WSW 1022,8 7 0 0,0
15.01.2019 11:00:00 2,1 1,7 2,3 2,0 2,6 5,8 17 9 26 14 WSW 1023,8 5 0 0,0
15.01.2019 10:00:00 1,7 1,5 1,8 1,6 2,6 5,8 16 9 21 11 WSW 1023,5 2,7 0 0,0
15.01.2019 09:00:00 1,4 1,1 1,3 1,3 2,6 5,7 11 6 22 12 SW 1023,5 4,3 0 0,0
15.01.2019 08:00:00 0,9 0,8 0,8 1,1 2,7 5,7 12 6 19 11 W 1023,2 0,2 0 0,0
15.01.2019 07:00:00 0,8 0,7 0,6 0,9 2,7 5,7 12 7 16 8 W 1023,4 0,6 0 0,0
15.01.2019 06:00:00 0,4 0,3 0,1 0,8 2,8 5,7 10 5 14 8 WSW 1023,6 0,7 0 0,0
15.01.2019 05:00:00 0,1 -0,1 0,0 0,8 2,9 5,7 9 5 14 8 WSW 1024,0 1,1 0 0,7
15.01.2019 04:00:00 0,2 -0,3 0,0 0,8 3,0 5,7 11 6 16 9 W 1024,3 1,0 0 0,0
15.01.2019 03:00:00 0,5 -0,5 -0,3 0,9 3,1 5,7 10 5 20 11 W 1024,1 14 0 0,0
15.01.2019 02:00:00 0,6 -0,5 0,3 0,9 3,1 5,7 10 5 16 9 W 1023,7 14 0 0,0
15.01.2019 01:00:00 0,7 -0,6 0,3 1,0 3,3 5,7 13 7 16 9 W 1023,4 19 0 0,0
15.01.2019 00:00:00 0,5 -0,9 0,0 1,0 3,4 5,7 8 5 22 12 WNW 1023,1 36 0 0,0
14.01.2019 23:00:00 0,6 -1,5 0,1 1,0 3,6 5,7 10 5 15 8 W 1022,7 45 0 0,0
14.01.2019 22:00:00 1,2 -1,9 -0,1 0,9 3,7 5,7 10 6 21 11 W 1022,3 70 0 0,0
14.01.2019 21:00:00 1,6 -1,9 0,0 1,3 3,9 5,7 14 7 28 15 W 1021,8 70 0 0,0
14.01.2019 20:00:00 2,0 -1,5 0,2 1,9 4,0 5,7 16 8 33 18 WNW 1020,8 70 0 0,0
14.01.2019 19:00:00 2,4 -1,3 1,0 2,5 4,1 5,7 17 9 26 14 WNW 1020,0 70 0 0,0
14.01.2019 18:00:00 3,2 -1,1 0,9 3,1 4,2 5,7 9 5 27 14 NW 1018,7 70 0 0,0
14.01.2019 17:00:00 3,8 -0,9 2,4 3,9 4,2 5,6 11 6 32 17 WNW 1017,6 70 34 0,0
14.01.2019 16:00:00 3,9 0,5 3,3 4,3 4,1 5,6 8 5 27 15 W 1016,4 70 26 0,0
14.01.2019 15:00:00 3,0 0,2 2,7 4,4 4,1 5,6 8 5 39 21 NNW 1016,1 70 2 0,8
14.01.2019 14:00:00 3,3 0,5 3,4 5,5 4,0 5,6 29 16 52 28 NNE 1015,2 20 16 0,0
14.01.2019 13:00:00 5,4 1,7 5,6 4,5 4,0 5,6 25 13 49 26 W 1013,8 41 23 0,0
14.01.2019 12:00:00 4,2 2,2 3,6 3,9 4,0 5,6 18 10 30 16 W 1013,7 35 0 0,0
14.01.2019 11:00:00 3,6 2,4 3,4 3,7 4,0 5,6 11 6 26 14 WSW 1013,8 22 0 0,0
14.01.2019 10:00:00 3,8 1,7 3,4 3,5 4,0 5,6 12 7 25 13 W 1013,4 34 0 0,0
14.01.2019 09:00:00 4,0 1,8 3,0 3,3 4,1 5,6 14 8 35 19 W 1012,5 36 0 0,0
14.01.2019 08:00:00 4,0 1,8 3,1 3,4 4,1 5,6 17 9 31 17 W 1011,4 35 0 0,0
14.01.2019 07:00:00 3,9 2,4 3,2 3,4 4,2 5,6 10 5 45 24 W 1011,2 16 0 1,1
14.01.2019 06:00:00 4,3 1,7 3,4 3,2 4,3 5,6 21 12 38 20 W 1010,2 23 0 0,0
14.01.2019 05:00:00 4,7 1,4 3,5 3,4 4,4 5,6 16 9 34 19 WNW 1009,6 35 0 0,0
14.01.2019 04:00:00 4,3 2,0 3,2 3,4 4,5 5,6 17 9 36 19 W 1008,9 70 0 0,0
14.01.2019 03:00:00 4,4 1,6 2,7 3,7 4,6 5,6 22 12 47 25 WNW 1007,8 70 0 0,0
14.01.2019 02:00:00 5,0 2,4 3,4 4,4 4,7 5,6 24 13 45 24 W 1007,2 70 0 0,1
14.01.2019 01:00:00 5,6 3,4 4,4 5,2 4,7 5,5 13 7 35 19 WNW 1006,7 10 0 0,0
14.01.2019 00:00:00 6,1 3,7 5,2 5,6 4,7 5,5 16 9 45 25 W 1006,3 70 0 0,3
13.01.2019 23:00:00 6,8 5,8 6,2 5,9 4,6 5,5 23 12 48 26 W 1005,6 16 0 1,4
13.01.2019 22:00:00 6,7 6,2 6,4 6,0 4,6 5,5 21 12 46 25 W 1005,5 3,1 0 0,2
13.01.2019 21:00:00 7,3 6,1 6,7 6,1 4,5 5,5 27 14 53 28 W 1005,4 59 0 0,3
13.01.2019 20:00:00 7,3 6,8 6,9 6,2 4,4 5,5 29 15 46 25 W 1005,1 8 0 0,4
13.01.2019 19:00:00 7,5 7,3 7,2 6,2 4,3 5,5 26 14 48 26 W 1005,9 5 0 1,2
13.01.2019 18:00:00 7,4 7,3 7,2 6,1 4,2 5,6 29 15 48 26 W 1006,0 3,0 0 1,4
13.01.2019 17:00:00 7,2 7,2 7,1 6,0 4,1 5,6 27 15 49 27 W 1006,7 2,0 0 0,6
13.01.2019 16:00:00 7,0 6,8 6,8 5,9 3,9 5,6 32 17 51 28 W 1006,8 2,6 0 0,9
13.01.2019 15:00:00 7,0 6,5 6,8 5,9 3,8 5,6 35 19 64 34 W 1007,6 4,7 0 0,1
13.01.2019 14:00:00 6,9 6,4 6,6 5,7 3,7 5,6 36 20 69 37 W 1008,1 3,6 0 0,2
13.01.2019 13:00:00 6,7 6,2 6,5 5,5 3,6 5,6 31 17 57 31 W 1009,1 5 0 0,1
13.01.2019 12:00:00 6,4 6,2 6,3 5,2 3,5 5,6 29 15 47 26 W 1010,1 2,6 0 0,3
13.01.2019 11:00:00 6,2 5,8 6,0 4,9 3,4 5,6 31 17 47 25 W 1010,9 3,7 0 1,0
13.01.2019 10:00:00 5,6 5,6 5,5 4,5 3,3 5,6 21 12 39 21 W 1012,1 1,7 0 1,7
13.01.2019 09:00:00 5,1 5,1 5,0 4,3 3,2 5,7 24 13 37 20 W 1012,1 0,2 0 0,4
13.01.2019 08:00:00 5,0 5,0 4,9 4,1 3,2 5,7 24 13 34 19 WSW 1012,6 0,2 0 0,6
13.01.2019 07:00:00 4,8 4,8 4,7 4,1 3,1 5,7 22 12 38 21 WSW 1013,7 0,2 0 0,4
13.01.2019 06:00:00 4,8 4,7 4,7 3,9 3,0 5,7 23 12 35 19 W 1014,5 0,8 0 0,1
13.01.2019 05:00:00 4,7 4,5 4,5 3,9 3,0 5,7 17 9 27 14 W 1014,8 4,6 0 0,0
13.01.2019 04:00:00 4,7 4,5 4,5 3,8 2,9 5,7 16 9 28 15 W 1015,6 5 0 0,0
13.01.2019 03:00:00 4,8 4,3 4,4 3,8 2,8 5,7 16 9 29 16 W 1016,0 9 0 0,0
13.01.2019 02:00:00 4,7 4,3 4,4 3,7 2,7 5,7 20 11 39 21 W 1015,8 4,0 0 0,0
13.01.2019 01:00:00 5,0 4,2 4,5 3,6 2,7 5,7 18 10 34 18 W 1015,9 16 0 0,9
13.01.2019 00:00:00 4,9 4,4 4,5 3,5 2,6 5,7 18 10 31 17 W 1016,2 4,2 0 0,3
12.01.2019 23:00:00 4,7 4,3 4,3 3,4 2,5 5,7 16 9 29 16 W 1016,3 14 0 0,0
12.01.2019 22:00:00 4,2 4,2 4,0 3,2 2,4 5,7 18 10 36 20 W 1016,7 6 0 0,2
12.01.2019 21:00:00 3,8 3,8 3,7 3,0 2,3 5,7 20 11 37 20 W 1017,0 2,5 0 1,1
12.01.2019 20:00:00 3,6 3,4 3,5 2,8 2,3 5,7 28 15 42 23 W 1017,5 6 0 1,8
12.01.2019 19:00:00 3,4 3,3 3,3 2,7 2,2 5,8 23 13 46 25 W 1018,3 3,7 0 1,6
12.01.2019 18:00:00 3,2 3,1 3,1 2,5 2,1 5,8 30 16 51 28 WSW 1018,3 1,3 0 1,2
12.01.2019 17:00:00 2,9 2,7 2,8 2,5 2,0 5,8 32 17 46 25 W 1019,4 2,8 0 1,1
12.01.2019 16:00:00 3,1 2,6 2,9 2,4 1,9 5,9 32 17 48 26 W 1019,9 2,7 0 0,1
12.01.2019 15:00:00 2,9 2,4 2,7 2,3 1,8 5,9 27 15 40 22 WSW 1021,0 4,6 0 0,0
12.01.2019 14:00:00 2,9 2,6 2,8 2,1 1,7 5,9 23 13 38 20 WSW 1022,2 1,4 0 0,0
12.01.2019 13:00:00 2,9 2,5 2,9 1,6 1,6 5,9 21 11 42 23 W 1023,0 3,6 0 0,2
12.01.2019 12:00:00 2,7 2,5 2,6 0,6 1,6 5,9 24 13 37 20 W 1023,6 1,6 0 0,1
12.01.2019 11:00:00 2,6 2,3 2,5 0,4 1,6 5,9 27 15 37 20 W 1024,6 2,8 0 0,2
12.01.2019 10:00:00 2,3 2,1 2,0 0,4 1,6 5,9 17 9 26 14 WSW 1025,4 2,2 0 0,0
12.01.2019 09:00:00 2,7 1,9 2,1 0,4 1,6 5,9 21 12 33 18 W 1025,6 10 0 0,0
12.01.2019 08:00:00 2,7 2,1 2,2 0,4 1,6 5,9 16 9 31 17 W 1025,4 10 0 0,0
12.01.2019 07:00:00 2,7 2,7 2,1 0,4 1,6 6,0 16 8 23 12 W 1025,2 4,3 0 0,0
12.01.2019 06:00:00 2,4 2,4 1,9 0,3 1,6 6,0 14 8 23 12 W 1025,5 0,2 0 0,1
12.01.2019 05:00:00 2,2 2,2 1,6 0,3 1,6 6,0 12 7 22 12 WSW 1026,0 0,2 0 0,0
12.01.2019 04:00:00 2,0 2,0 1,2 0,3 1,6 6,0 12 6 18 10 W 1026,4 0,1 0 0,3
12.01.2019 03:00:00 1,4 1,4 1,0 0,3 1,6 6,0 8 4 14 8 W 1026,6 0,1 0 0,0
12.01.2019 02:00:00 1,2 1,2 0,8 0,3 1,6 6,0 12 6 18 10 W 1026,3 0,1 0 0,2
12.01.2019 01:00:00 0,8 0,8 0,5 0,3 1,6 6,0 12 7 16 9 W 1026,2 0,1 0 0,0
12.01.2019 00:00:00 0,6 0,6 0,4 0,3 1,6 6,0 14 7 18 10 WSW 1026,2 0,1 0 0,0
11.01.2019 23:00:00 0,3 0,3 0,0 0,3 1,7 6,0 15 8 21 11 W 1026,2 0,1 0 0,1
11.01.2019 22:00:00 0,0 0,0 0,0 0,3 1,7 6,0 14 8 19 11 W 1026,4 0,1 0 0,4
11.01.2019 21:00:00 -0,1 -0,1 0,0 0,3 1,7 6,0 16 9 23 13 W 1026,3 0,1 0 0,0
11.01.2019 20:00:00 -0,2 -0,2 -0,1 0,3 1,7 6,0 16 9 23 13 W 1026,1 0,1 0 0,1
11.01.2019 19:00:00 -0,3 -0,3 -0,1 0,3 1,7 6,0 18 10 25 14 W 1026,3 0,1 0 0,0
11.01.2019 18:00:00 -0,4 -0,4 -0,3 0,3 1,7 6,0 19 10 27 14 W 1026,0 0,1 0 0,0
11.01.2019 17:00:00 -0,5 -0,5 -0,4 0,3 1,7 6,0 14 8 21 12 W 1026,1 0,1 0 0,0
11.01.2019 16:00:00 -0,5 -0,5 -0,3 0,3 1,7 6,0 14 7 22 12 W 1025,8 0,1 0 0,2
11.01.2019 15:00:00 -0,7 -0,8 -0,3 0,3 1,7 6,0 15 8 25 13 WSW 1025,8 0,2 0 0,3
11.01.2019 14:00:00 -0,9 -1,1 -0,6 0,3 1,7 6,0 18 10 24 13 W 1025,9 0,2 0 0,6
11.01.2019 13:00:00 -1,1 -1,3 -0,7 0,3 1,7 6,0 18 10 27 15 WSW 1026,5 1,3 0 0,1
11.01.2019 12:00:00 -1,2 -1,4 -0,9 0,3 1,7 6,1 16 9 28 15 W 1027,0 0,5 0 0,1
11.01.2019 11:00:00 -1,6 -1,9 -1,1 0,3 1,7 6,1 21 12 26 14 W 1027,1 0,7 0 0,0
11.01.2019 10:00:00 -1,9 -2,2 -1,4 0,2 1,7 6,1 14 8 20 11 W 1027,3 0,8 0 0,0
11.01.2019 09:00:00 -2,0 -2,3 -1,7 0,2 1,7 6,1 15 8 19 11 W 1027,3 1,0 0 0,0
11.01.2019 08:00:00 -2,1 -2,7 -1,8 0,2 1,8 6,1 10 5 15 8 W 1027,4 1,8 0 0,0
11.01.2019 07:00:00 -2,2 -3,0 -2,0 0,2 1,8 6,1 6 4 9 5 WSW 1027,4 3,6 0 0,0
11.01.2019 06:00:00 -2,2 -3,6 -2,1 0,3 1,8 6,1 8 5 13 7 W 1027,5 5 0 0,0
11.01.2019 05:00:00 -2,2 -3,8 -2,2 0,3 1,8 6,1 7 4 9 5 W 1027,6 7 0 0,0
11.01.2019 04:00:00 -2,2 -4,1 -2,4 0,3 1,8 6,1 6 4 8 5 W 1027,8 7 0 0,0
11.01.2019 03:00:00 -2,1 -4,1 -2,3 0,3 1,8 6,1 5 3 8 4 WSW 1028,0 8 0 0,0
11.01.2019 02:00:00 -2,3 -4,3 -2,6 0,3 1,8 6,1 6 3 8 5 W 1028,0 8 0 0,0
11.01.2019 01:00:00 -2,0 -4,4 -3,4 0,4 1,9 6,1 4 2 10 5 W 1027,8 12 0 0,0
11.01.2019 00:00:00 -1,5 -4,3 -2,3 0,4 1,9 6,1 5 3 13 7 WNW 1028,1 13 0 0,0
10.01.2019 23:00:00 -1,5 -4,8 -2,7 0,4 1,9 6,1 4 2 9 5 WNW 1028,2 16 0 0,0
10.01.2019 22:00:00 -1,3 -5,0 -2,7 0,4 1,9 6,1 4 2 6 3 WNW 1028,0 18 0 0,0
10.01.2019 21:00:00 -0,9 -5,2 -2,7 0,4 1,9 6,1 4 2 8 4 NNE 1027,7 24 0 0,0
10.01.2019 20:00:00 -0,9 -5,5 -1,8 0,4 1,9 6,1 6 3 17 9 NE 1027,7 28 0 0,0
10.01.2019 19:00:00 -0,7 -5,6 -1,2 0,5 1,9 6,1 10 5 21 12 NE 1027,4 33 0 0,0
10.01.2019 18:00:00 -0,8 -5,5 -2,0 0,5 1,9 6,1 12 6 23 13 NE 1027,2 31 0 0,0
10.01.2019 17:00:00 -0,4 -5,1 -1,7 0,5 1,9 6,1 13 7 21 11 NE 1026,6 39 13 0,0

tt = Température de l'air
td = dewpoint
tt 5cm = Température de l'air 5cm
tt -5cm = Température de l'air -5cm
tt -20cm = Température de l'air -20cm
tt -100cm = Température de l'air -100cm
ff = Vitesse du vent
fx = gusts
dd = Direction du vent
ppp = reduced air pressure
vv = visibility
sd = Ensoleillement
rr = Quantités de précipitations

stations d'obs. à proximité